Location: Narrabri
(30.3170°S, 149.7830°E)
Time: 22:07:03
(UTC+11:00)

OTV 5 (USA 277) - Pass Details

Date: 15 October 2017
Orbit: 404 x 417 km, 43.0° (Epoch: 07 September)

Event Time Altitude Azimuth Distance (km) Brightness Sun altitude
Exits shadow 05:04:39 51° 287° (WNW) 522 ? -17.1°
Maximum altitude 05:05:22 77° 213° (SSW) 422 ? -17.0°
Drops below altitude 10° 05:08:42 10° 126° (SE) 1,475 ? -16.3°
Sets 05:10:49 0° 124° (SE) 2,340 ? -15.9°
